Total_Precipitation_Accumulation
0.72 0.77 0.93 1.04 0.92 1.16 1.31 2.16 2.96 2.61 1.02 0.49 0.63 0.62 0.50 0.46 0.53 0.39 0.19 0.14 0.14 0.08
0.95 1.07 0.92 0.89 1.56 1.71 1.63 1.32 2.55 3.47 3.22 1.51 0.88 0.80 0.75 0.53 0.46 0.38 0.28 0.18 0.16 0.11
0.84 1.39 1.55 1.42 1.35 1.64 2.18 2.62 2.00 1.96 2.13 2.52 1.50 0.92 0.86 0.65 0.55 0.47 0.26 0.19 0.08 0.04
0.66 0.95 1.51 1.71 1.88 1.49 1.76 2.55 3.93 3.13 1.94 2.14 2.53 1.79 1.22 0.79 0.65 0.51 0.46 0.31 0.18 0.07
0.75 0.92 1.09 1.39 1.63 1.58 1.28 1.80 3.06 4.08 4.12 3.39 3.06 2.44 2.10 1.45 0.74 0.49 0.55 0.45 0.26 0.19
0.59 0.79 0.96 0.90 1.04 1.36 1.43 1.49 2.38 3.32 3.79 4.43 4.15 3.64 3.06 2.34 1.80 1.20 0.73 0.71 0.57 0.35
0.47 0.42 0.65 0.69 0.62 0.67 0.87 1.11 1.56 2.44 2.86 3.41 3.90 4.02 3.63 3.25 2.82 2.03 1.56 1.38 1.24 1.10
0.29 0.36 0.31 0.45 0.49 0.42 0.51 0.67 0.91 1.13 1.42 1.87 2.71 3.37 3.57 3.21 2.77 2.45 1.52 0.83 0.70 0.71
0.19 0.22 0.30 0.25 0.38 0.39 0.41 0.50 0.65 0.76 0.79 1.13 1.21 1.71 2.01 2.57 2.87 3.11 2.91 2.01 1.01 0.69
0.25 0.27 0.26 0.36 0.28 0.39 0.53 0.46 0.54 0.69 0.60 0.70 0.82 0.92 1.22 1.38 1.74 2.06 2.44 2.66 2.37 1.63
0.21 0.23 0.25 0.26 0.33 0.34 0.37 0.52 0.53 0.50 0.61 0.56 0.63 0.70 0.57 0.71 0.90 1.17 1.27 1.48 1.96 2.12
0.17 0.17 0.18 0.19 0.22 0.20 0.28 0.27 0.31 0.42 0.45 0.45 0.48 0.48 0.58 0.53 0.34 0.45 0.58 0.71 0.83 1.16
0.07 0.08 0.09 0.09 0.10 0.11 0.11 0.14 0.17 0.15 0.22 0.32 0.32 0.34 0.34 0.49 0.68 0.52 0.35 0.33 0.42 0.59
0.04 0.04 0.03 0.03 0.03 0.03 0.04 0.05 0.04 0.06 0.07 0.10 0.17 0.24 0.27 0.26 0.29 0.51 0.60 0.44 0.33 0.33